Starlink 3245

operational
NORAD ID: 50170 Int'l Des: 2021-125 Owner: SPXS Country: US Constellation: starlink
LEOCIRCULAR

Starlink 3245について

説明を読み込み中...

リアルタイム位置

3D地球を読み込み中...

次回通過

高度履歴

Altitude vs Time

uPlot chart will show altitude changes over time

軌道要素

1 50170U 21125Q 25352.42616360 .00003171 00000-0 21735-3 0 9992
2 50170 53.2158 253.9253 0001355 95.8750 264.2396 15.08820416224326
Epoch: Dec 18, 2025 • Age: 12 hours

現在のステータス

高度 539.6 km
速度 7.60 km/s
衛星直下点 13.68°N, 2.39°E
打ち上げ日 Dec 18, 2021
運用期間 4 years
タイプ internet

技術仕様

分類 Payload
質量 290.00 kg
乾燥質量 270.00 kg
総質量 290.00 kg
長さ 0.20 m
直径 2.80 m
スパン 9.00 m
形状 Box + pan
製造者 SPXS
バスタイプ Starlink
フェーズステータス In Orbit
所有者/国 SPXS/US

大規模コンステレーション

Loading constellations...